logo tempoitalia

Diretta Meteo Sonora, Stati Uniti (USA)lunedì 31 agosto ore 01:35

Mappa
Sereno 27 °C Sereno 24 Ore: T.min 22 T.max 36
Ponente Sud/Sud-Est Km/h 11.1 Punto di rugiada: 17 °C Umidità: 54% Visibilità: 10 Km
Il sole sorge alle: 07:18 Il sole tramonta alle: 20:06
31 Agosto 2026 01:35 tempo osservato: Sereno Sereno 27 54 1018 vento: Nord S/SE 11.1
31 Agosto 2026 01:15 tempo osservato: Sereno Sereno 27 50 1018 vento: Nord SE 11.1
31 Agosto 2026 00:55 tempo osservato: Sereno Sereno 27 50 1017 vento: Nord N 5.5
31 Agosto 2026 00:35 tempo osservato: Sereno Sereno 27 50 1017 vento: Nord S/SE 7.4
31 Agosto 2026 00:15 tempo osservato: Sereno Sereno 27 50 1017 vento: Nord S/SE 9.3
30 Agosto 2026 23:55 tempo osservato: Sereno Sereno 28 48 1017 vento: Nord S/SE 9.3
30 Agosto 2026 23:35 tempo osservato: Sereno Sereno 28 48 1017 vento: Nord SE 11.1
30 Agosto 2026 23:15 tempo osservato: Sereno Sereno 29 45 1017 vento: Nord SE 9.3
30 Agosto 2026 22:55 tempo osservato: Sereno Sereno 29 45 1017 vento: Nord SE 9.3
30 Agosto 2026 22:35 tempo osservato: Sereno Sereno 30 40 1017 vento: Nord S/SE 11.1
30 Agosto 2026 22:15 tempo osservato: Sereno Sereno 30 40 1017 vento: Nord SE 11.1
30 Agosto 2026 21:55 tempo osservato: Sereno Sereno 30 40 1017 vento: Nord S/SE 9.3
30 Agosto 2026 21:35 tempo osservato: Sereno Sereno 31 35 1016 vento: Nord S/SE 13
30 Agosto 2026 21:15 tempo osservato: Sereno Sereno 31 35 1016 vento: Nord S/SE 13
30 Agosto 2026 20:55 tempo osservato: Sereno Sereno 32 31 1016 vento: Nord S/SE 11.1
30 Agosto 2026 20:35 tempo osservato: Sereno Sereno 32 31 1016 vento: Nord S/SE 11.1
30 Agosto 2026 20:15 tempo osservato: Sereno Sereno 33 29 1016 vento: Nord SE 11.1
30 Agosto 2026 19:55 tempo osservato: Sereno Sereno 34 28 1015 vento: Nord SE 14.8
30 Agosto 2026 19:35 tempo osservato: Sereno Sereno 34 26 1015 vento: Nord S/SE 16.7
30 Agosto 2026 19:15 tempo osservato: Sereno Sereno 35 24 1015 vento: Nord S/SE 11.1
30 Agosto 2026 18:55 tempo osservato: Sereno Sereno 35 26 1015 vento: Nord S/SE 14.8
30 Agosto 2026 18:35 tempo osservato: Sereno Sereno 35 24 1015 vento: Nord S/SE 14.8
30 Agosto 2026 18:15 tempo osservato: Sereno Sereno 35 28 1015 vento: Nord S 11.1
30 Agosto 2026 17:55 tempo osservato: Sereno Sereno 36 26 1015 vento: Nord S 20.3
30 Agosto 2026 17:35 tempo osservato: Sereno Sereno 35 28 1015 vento: Nord SE 13
30 Agosto 2026 17:15 tempo osservato: Sereno Sereno 36 26 1015 vento: Nord S/SE 13
30 Agosto 2026 16:55 tempo osservato: Sereno Sereno 36 26 1015 vento: Nord E/SE 20.3
30 Agosto 2026 16:35 tempo osservato: Sereno Sereno 36 26 1015 vento: Nord S/SE 14.8
30 Agosto 2026 16:15 tempo osservato: Sereno Sereno 35 28 1016 vento: Nord N 11.1
30 Agosto 2026 15:55 tempo osservato: Sereno Sereno 35 30 1016 vento: Nord SE 11.1
30 Agosto 2026 15:35 tempo osservato: Sereno Sereno 36 26 1016 vento: Nord S 13
30 Agosto 2026 15:15 tempo osservato: Sereno Sereno 35 32 1017 vento: Nord SE 13
30 Agosto 2026 14:55 tempo osservato: Sereno Sereno 34 34 1017 vento: Nord N 0
30 Agosto 2026 14:35 tempo osservato: Sereno Sereno 35 32 1017 vento: Nord S 14.8
30 Agosto 2026 14:15 tempo osservato: Sereno Sereno 35 32 1018 vento: Nord S/SE 16.7
30 Agosto 2026 13:55 tempo osservato: Sereno Sereno 34 36 1018 vento: Nord S/SE 16.7
30 Agosto 2026 13:35 tempo osservato: Sereno Sereno 34 36 1018 vento: Nord S 13
30 Agosto 2026 13:15 tempo osservato: Sereno Sereno 34 36 1018 vento: Nord S 18.5
30 Agosto 2026 12:55 tempo osservato: Sereno Sereno 32 43 1019 vento: Nord N 11.1
30 Agosto 2026 12:35 tempo osservato: Sereno Sereno 33 41 1019 vento: Nord S/SO 11.1
30 Agosto 2026 12:15 tempo osservato: Sereno Sereno 32 46 1019 vento: Nord S 14.8
30 Agosto 2026 11:55 tempo osservato: Sereno Sereno 32 46 1020 vento: Nord S 22.2
30 Agosto 2026 11:35 tempo osservato: Sereno Sereno 31 52 1020 vento: Nord S/SE 16.7
30 Agosto 2026 11:15 tempo osservato: Sereno Sereno 31 52 1020 vento: Nord S/SE 16.7
30 Agosto 2026 10:55 tempo osservato: Sereno Sereno 29 58 1020 vento: Nord S 14.8
30 Agosto 2026 10:35 tempo osservato: Sereno Sereno 29 62 1020 vento: Nord S 16.7
30 Agosto 2026 10:15 tempo osservato: Sereno Sereno 29 62 1020 vento: Nord S/SO 13
30 Agosto 2026 09:55 tempo osservato: Sereno Sereno 28 65 1020 vento: Nord S 13
30 Agosto 2026 09:35 tempo osservato: Sereno Sereno 27 69 1020 vento: Nord S 11.1
30 Agosto 2026 09:15 tempo osservato: Sereno Sereno 26 73 1020 vento: Nord S 9.3
30 Agosto 2026 08:55 tempo osservato: Sereno Sereno 25 78 1020 vento: Nord S/SE 13
30 Agosto 2026 08:35 tempo osservato: Sereno Sereno 24 78 1020 vento: Nord N 5.5
30 Agosto 2026 08:15 tempo osservato: Sereno Sereno 23 83 1020 vento: Nord N 0
30 Agosto 2026 07:55 tempo osservato: Sereno Sereno 23 83 1020 vento: Nord N 0
30 Agosto 2026 07:35 tempo osservato: Sereno Sereno 22 88 1019 vento: Nord N 0
30 Agosto 2026 07:15 tempo osservato: Sereno Sereno 23 83 1019 vento: Nord N 0
30 Agosto 2026 06:55 tempo osservato: Sereno Sereno 23 83 1019 vento: Nord N 0
30 Agosto 2026 06:35 tempo osservato: Sereno Sereno 24 78 1019 vento: Nord S 7.4
30 Agosto 2026 06:15 tempo osservato: Sereno Sereno 24 78 1019 vento: Nord N 0
30 Agosto 2026 05:55 tempo osservato: Sereno Sereno 25 73 1018 vento: Nord S/SE 9.3
30 Agosto 2026 05:35 tempo osservato: Sereno Sereno 25 73 1018 vento: Nord S 11.1
30 Agosto 2026 05:15 tempo osservato: Sereno Sereno 25 73 1018 vento: Nord S 16.7
30 Agosto 2026 04:55 tempo osservato: Sereno Sereno 25 69 1018 vento: Nord S 13
30 Agosto 2026 04:35 tempo osservato: Sereno Sereno 25 69 1018 vento: Nord S/SE 13
30 Agosto 2026 04:15 tempo osservato: Sereno Sereno 25 69 1018 vento: Nord S 13
30 Agosto 2026 03:55 tempo osservato: Sereno Sereno 25 69 1018 vento: Nord S 9.3
30 Agosto 2026 03:35 tempo osservato: Sereno Sereno 26 65 1018 vento: Nord S 13
30 Agosto 2026 03:15 tempo osservato: Sereno Sereno 26 65 1018 vento: Nord S 13
30 Agosto 2026 02:55 tempo osservato: Sereno Sereno 26 61 1019 vento: Nord S 9.3
30 Agosto 2026 02:35 tempo osservato: Sereno Sereno 26 61 1019 vento: Nord S 9.3
30 Agosto 2026 02:15 tempo osservato: Sereno Sereno 26 57 1019 vento: Nord S 9.3
30 Agosto 2026 01:55 tempo osservato: Sereno Sereno 26 57 1019 vento: Nord S/SE 7.4
30 Agosto 2026 01:35 tempo osservato: Sereno Sereno 26 57 1019 vento: Nord S/SE 7.4